sat.trackr.live / text

‹ back to catalog

STARLINK-5389

NORAD 54835 · 2022-177R

PAYLOAD ACTIVE UNKNOWN

§ Identity

Operator
Country
US
Launch date
2022-12-28
Launch site
AFETR
Launch vehicle
Mass (kg)
RCS (m²)

Purposes: comms

External: N2YO · Heavens-Above · Gunter

§ Orbital elements

Epoch: 2026-05-25T01:59:52.354176Z

Period
94.27 min
Inclination
43.0025°
Eccentricity
0.0000789
Mean motion
15.27575061 rev/d
Perigee alt
482.5 km
Apogee alt
483.6 km
Semi-major
6,861.2 km
B*
9.0141e-6
RAAN
64.9015°
Arg perigee
259.5739°
Mean anomaly
100.5023°
Rev number
18,860

§ Raw data

STARLINK-53891 54835U 22177R   26145.08324484 -.00000014  00000+0  90141-5 0  99902 54835  43.0025  64.9015 0000789 259.5739 100.5023 15.27575061188603

JSON: /api/v1/satellites/54835 · /tle

For live sub-satellite position, see the globe view (requires WebGL).

§ Visibility from observer

Set your observer location to see the next 7 days of passes ≥ 10°. The values pass through the URL so the page stays shareable.

No JS? Fill the form by hand. The geolocation button needs JavaScript.